Fargo, ND

11:09 AM CDT on September 26, 2016 (GMT -0500)
Hector International

Weather History for KFAR - August, 2013

Change the Weather History Date:

Thursday, August 22, 2013

  Actual Average Record
Temperature  
Mean Temperature 70 °F 68 °F  
Max Temperature 82 °F 80 °F 101 °F (1947)
Min Temperature 58 °F 56 °F 36 °F (1890)
Degree Days  
Heating Degree Days 0 1  
Month to date heating degree days 17 18  
Since 1 June heating degree days 96 107  
Since 1 July heating degree days 34 34  
Cooling Degree Days 5 5  
Month to date cooling degree days 84 132  
Year to date cooling degree days 492 472  
Since 1 June cooling degree days 463 441  
Growing Degree Days 20 (Base 50)    
Moisture  
Dew Point 47 °F    
Average Humidity 49    
Maximum Humidity 72    
Minimum Humidity 25    
Precipitation  
Precipitation 0.00 in 0.10 in 1.94 in (1978)
Month to date precipitation 0.25 1.71  
Year to date precipitation 21.78 15.21  
Snow  
Snow 0.00 in 0.00 in 0.00 in ()
Month to date snowfall 0.0 0.0  
Since 1 June snowfall 0.0 0.0  
Since 1 July snowfall 0.0 0.0  
Snow Depth 0.00 in    
Sea Level Pressure  
Sea Level Pressure 30.15 in    
Wind  
Wind Speed 6 mph (NE)    
Max Wind Speed 14 mph    
Max Gust Speed 20 mph    
Visibility 10 miles    
Events      
T = Trace of Precipitation, MM = Missing Value Source: NWS Daily Summary

Daily Weather History Graph

Daily Weather History Graph

Search for Another Location

Airport or City:

Trip Planner

Search our weather history database for the weather conditions in past years. The results will help you decide how hot, cold, wet, or windy it might be!

Date:

Astronomy

Aug. 22, 2013 Rise Set
Actual Time 6:34 AM CDT 8:25 PM CDT
Civil Twilight 6:01 AM CDT 8:57 PM CDT
Nautical Twilight 5:21 AM CDT 9:36 PM CDT
Astronomical Twilight 4:37 AM CDT 10:20 PM CDT
Moon 8:56 PM CDT (8/22) 8:35 AM CDT (8/22)
Length of Visible Light 14h 55m
Length of Day
13h 50m
Waning Gibbous, 96% of the Moon is Illuminated
Aug 22
Waning Gibbous
Aug 28
Last Quarter
Sep 5
New
Sep 12
First Quarter
Sep 19
Full

Hourly Weather History & Observations

Time (CDT) Temp. Dew Point Humidity Pressure Visibility Wind Dir Wind Speed Gust Speed Precip Events Conditions
12:53 AM 66.9 °F 46.9 °F 49% 30.09 in 10.0 mi NNE 11.5 mph - N/A   Clear
1:53 AM 64.9 °F 46.9 °F 52% 30.11 in 10.0 mi NNE 9.2 mph - N/A   Mostly Cloudy
2:53 AM 63.0 °F 48.0 °F 58% 30.12 in 10.0 mi NNE 5.8 mph - N/A   Clear
3:53 AM 60.1 °F 48.0 °F 64% 30.13 in 10.0 mi NNE 4.6 mph - N/A   Clear
4:53 AM 57.9 °F 48.9 °F 72% 30.16 in 10.0 mi Calm Calm - N/A   Clear
5:53 AM 60.1 °F 48.9 °F 67% 30.17 in 10.0 mi Calm Calm - N/A   Clear
6:53 AM 59.0 °F 48.9 °F 69% 30.18 in 10.0 mi NNW 5.8 mph - N/A   Scattered Clouds
7:53 AM 63.0 °F 51.1 °F 65% 30.19 in 10.0 mi NNW 4.6 mph - N/A   Clear
8:53 AM 66.0 °F 51.1 °F 59% 30.19 in 10.0 mi North 6.9 mph - N/A   Clear
9:53 AM 71.1 °F 48.9 °F 45% 30.19 in 10.0 mi NNE 9.2 mph - N/A   Clear
10:22 AM 71.6 °F 48.2 °F 43% 30.20 in 10.0 mi NNE 8.1 mph - N/A   Clear
10:53 AM 75.0 °F 46.9 °F 37% 30.19 in 10.0 mi NNE 9.2 mph - N/A   Clear
11:53 AM 75.9 °F 41.0 °F 29% 30.19 in 10.0 mi NE 8.1 mph - N/A   Clear
12:53 PM 79.0 °F 43.0 °F 28% 30.18 in 10.0 mi North 5.8 mph - N/A   Clear
1:53 PM 79.0 °F 43.0 °F 28% 30.17 in 10.0 mi Variable 6.9 mph - N/A   Clear
2:53 PM 80.1 °F 42.1 °F 26% 30.16 in 10.0 mi Variable 5.8 mph - N/A   Clear
3:53 PM 80.1 °F 41.0 °F 25% 30.15 in 10.0 mi Variable 4.6 mph - N/A   Clear
4:53 PM 81.0 °F 44.1 °F 27% 30.14 in 10.0 mi ENE 9.2 mph - N/A   Clear
5:53 PM 81.0 °F 44.1 °F 27% 30.12 in 10.0 mi NNE 6.9 mph - N/A   Clear
6:53 PM 78.1 °F 46.0 °F 32% 30.12 in 10.0 mi ENE 6.9 mph - N/A   Clear
7:53 PM 75.0 °F 46.9 °F 37% 30.12 in 10.0 mi NNE 3.5 mph - N/A   Clear
8:53 PM 66.0 °F 50.0 °F 56% 30.12 in 10.0 mi Calm Calm - N/A   Clear
9:50 PM 60.8 °F 50.0 °F 68% 30.13 in 6.0 mi East 3.5 mph - N/A   Haze
9:53 PM 61.0 °F 51.1 °F 70% 30.13 in 5.0 mi East 4.6 mph - N/A   Haze
10:53 PM 61.0 °F 50.0 °F 67% 30.12 in 8.0 mi East 5.8 mph - N/A   Clear
11:53 PM 60.1 °F 50.0 °F 69% 30.13 in 10.0 mi ESE 3.5 mph - N/A   Clear